Tucson Davis Monthan, AZ

2:26 AM MST on December 11, 2019 (GMT -0700)
Davis-Monthan Air Force Base

Weather History for KDMA - October, 2019

Change the Weather History Date:

Saturday, October 12, 2019

  Actual Average Record
Temperature  
Mean Temperature 74 °F -  
Max Temperature 87 °F 84 °F 99 °F (1992)
Min Temperature 62 °F 56 °F 42 °F (1982)
Cooling Degree Days 10    
Growing Degree Days 24 (Base 50)    
Moisture  
Dew Point 34 °F    
Average Humidity 24    
Maximum Humidity 33    
Minimum Humidity 11    
Precipitation  
Precipitation 0.00 in - - ()
Sea Level Pressure  
Sea Level Pressure 29.82 in    
Wind  
Wind Speed 11 mph (SE)    
Max Wind Speed 17 mph    
Max Gust Speed 22 mph    
Visibility 10 miles    
Events      
Averages and records for this station are not official NWS values.
T = Trace of Precipitation, MM = Missing Value Source: NWS Daily Summary

Daily Weather History Graph

Daily Weather History Graph

Search for Another Location

Airport or City:

Astronomy

Oct. 12, 2019 Rise Set
Actual Time 6:24 AM MST 5:54 PM MST
Civil Twilight 6:00 AM MST 6:19 PM MST
Nautical Twilight 5:31 AM MST 6:47 PM MST
Astronomical Twilight 5:03 AM MST 7:15 PM MST
Moon 5:45 PM MST (10/12) 5:14 AM MST (10/12)
Length of Visible Light 12h 19m
Length of Day
11h 29m
Waxing Gibbous, 99% of the Moon is Illuminated
Oct 12
Waxing Gibbous
Oct 13
Full
Oct 21
Last Quarter
Oct 27
New
Nov 4
First Quarter

Hourly Weather History & Observations

Time (MST) Temp. Dew Point Humidity Pressure Visibility Wind Dir Wind Speed Gust Speed Precip Events Conditions
12:58 AM 70.0 °F 32.5 °F 25% 29.83 in 10.0 mi ESE 17.3 mph - N/A   Clear
1:58 AM 68.5 °F 32.4 °F 26% 29.83 in 10.0 mi ESE 8.1 mph - N/A   Clear
2:58 AM 68.2 °F 32.9 °F 27% 29.81 in 10.0 mi East 16.1 mph - N/A   Clear
3:58 AM 66.9 °F 32.7 °F 28% 29.81 in 10.0 mi ESE 13.8 mph - N/A   Clear
4:58 AM 65.1 °F 32.9 °F 30% 29.81 in 10.0 mi East 11.5 mph - N/A   Clear
5:58 AM 62.8 °F 33.3 °F 33% 29.83 in 10.0 mi ESE 13.8 mph - N/A   Clear
6:58 AM 65.3 °F 33.1 °F 30% 29.84 in 10.0 mi East 3.5 mph - N/A   Clear
7:58 AM 68.4 °F 34.9 °F 29% 29.86 in 10.0 mi East 11.5 mph - N/A   Clear
8:58 AM 72.5 °F 35.6 °F 26% 29.86 in 10.0 mi ESE 16.1 mph - N/A   Clear
9:58 AM 77.2 °F 38.7 °F 25% 29.86 in 10.0 mi ESE 6.9 mph - N/A   Clear
10:58 AM 81.3 °F 41.0 °F 24% 29.86 in 10.0 mi ESE 8.1 mph - N/A   Clear
11:57 AM 84.2 °F 41.0 °F 22% 29.83 in 10.0 mi SE 13.8 mph 21.9 mph N/A   Clear
11:58 AM 84.4 °F 40.1 °F 21% 29.83 in 10.0 mi SE 13.8 mph 21.9 mph N/A   Clear
12:58 PM 85.8 °F 38.8 °F 19% 29.78 in 10.0 mi ESE 12.7 mph - N/A   Clear
1:58 PM 87.1 °F 36.9 °F 17% 29.76 in 10.0 mi WNW 10.4 mph - N/A   Clear
2:58 PM 86.4 °F 31.5 °F 14% 29.76 in 10.0 mi WNW 5.8 mph - N/A   Clear
3:58 PM 87.3 °F 26.2 °F 11% 29.75 in 10.0 mi West 6.9 mph - N/A   Clear
4:58 PM 85.8 °F 31.1 °F 14% 29.76 in 10.0 mi NW 6.9 mph - N/A   Clear
5:58 PM 81.5 °F 29.3 °F 15% 29.77 in 10.0 mi WNW 4.6 mph - N/A   Clear
6:58 PM 76.8 °F 30.0 °F 18% 29.80 in 10.0 mi West 3.5 mph - N/A   Clear
7:58 PM 74.7 °F 32.2 °F 21% 29.82 in 10.0 mi West 5.8 mph - N/A   Clear
8:58 PM 70.7 °F 34.2 °F 26% 29.83 in 10.0 mi SW 4.6 mph - N/A   Clear
9:58 PM 66.4 °F 32.4 °F 28% 29.84 in 10.0 mi South 6.9 mph - N/A   Clear
10:58 PM 64.8 °F 32.5 °F 30% 29.83 in 10.0 mi SE 5.8 mph - N/A   Clear
11:58 PM 62.4 °F 32.9 °F 33% 29.84 in 10.0 mi ENE 4.6 mph - N/A   Clear